GFSGBSN_prec_snow_366.txt.gz
Snowfall_Accumulation
0.0 0.0 0.0 0.0 0.0 0.0 0.0 0.0 0.0 0.0 0.0 0.0 0.0 0.0 0.0 0.0 0.0 0.0 0.0 0.0 0.0 0.0 0.0 0.0 0.0 0.0 0.0 0.0 0.0 0.0 0.0 0.0 0.0 0.0 0.0 0.0 0.0 0.0 0.0 0.0 0.0 0.0 0.0 0.0 0.0 0.0 0.0
0.0 0.0 0.0 0.0 0.0 0.0 0.0 0.0 0.0 0.0 0.0 0.0 0.0 0.0 0.0 0.0 0.0 0.0 0.0 0.0 0.0 0.0 0.0 0.0 0.0 0.0 0.0 0.0 0.0 0.0 0.0 0.0 0.0 0.0 0.0 0.0 0.0 0.0 0.0 0.0 0.0 0.0 0.0 0.0 0.0 0.0 0.0
0.0 0.0 0.0 0.0 0.0 0.0 0.0 0.0 0.0 0.0 0.0 0.0 0.0 0.0 0.0 0.0 0.0 0.0 0.0 0.0 0.0 0.0 0.0 0.0 0.0 0.0 0.0 0.0 0.0 0.0 0.0 0.0 0.0 0.0 0.0 0.0 0.0 0.0 0.0 0.0 0.0 0.0 0.0 0.0 0.0 0.0 0.0
0.0 0.0 0.0 0.0 0.0 0.0 0.0 0.0 0.0 0.0 0.0 0.0 0.0 0.0 0.0 0.0 0.0 0.0 0.0 0.0 0.0 0.0 0.0 0.0 0.0 0.0 0.0 0.0 0.0 0.0 0.0 0.0 0.0 0.0 0.0 0.0 0.0 0.0 0.0 0.0 0.0 0.0 0.0 0.0 0.0 0.0 0.0
0.0 0.0 0.0 0.0 0.0 0.0 0.0 0.0 0.0 0.0 0.0 0.0 0.0 0.0 0.0 0.0 0.0 0.0 0.0 0.0 0.0 0.0 0.0 0.0 0.0 0.0 0.0 0.0 0.0 0.0 0.0 0.0 0.0 0.0 0.0 0.0 0.0 0.0 0.0 0.0 0.0 0.0 0.0 0.0 0.0 0.0 0.0
0.0 0.0 0.0 0.0 0.0 0.0 0.0 0.0 0.0 0.0 0.0 0.0 0.0 0.0 0.0 0.0 0.0 0.0 0.0 0.0 0.0 0.0 0.0 0.0 0.0 0.1 0.0 0.0 0.0 0.0 0.0 0.0 0.0 0.0 0.0 0.0 0.0 0.0 0.0 0.0 0.0 0.0 0.0 0.0 0.0 0.0 0.0
0.0 0.0 0.0 0.0 0.0 0.0 0.0 0.0 0.0 0.0 0.0 0.0 0.0 0.0 0.0 0.0 0.0 0.0 0.0 0.0 0.0 0.0 0.0 0.0 0.0 0.0 0.0 0.0 0.0 0.0 0.0 0.0 0.0 0.0 0.0 0.0 0.0 0.0 0.0 0.0 0.0 0.0 0.0 0.0 0.0 0.0 0.0
0.0 0.0 0.0 0.0 0.0 0.0 0.0 0.0 0.0 0.0 0.0 0.0 0.0 0.0 0.0 0.0 0.0 0.0 0.0 0.0 0.0 0.0 0.7 0.0 0.0 0.0 0.0 0.0 0.0 0.0 0.0 0.0 0.0 0.0 0.0 0.0 0.2 0.0 0.0 0.0 0.0 0.0 0.2 0.0 0.0 0.0 0.0
0.0 0.0 0.0 0.0 0.0 0.0 0.0 0.0 0.0 0.0 0.0 0.0 0.0 0.0 0.0 0.0 0.0 0.0 0.0 0.0 0.0 0.0 1.6 0.0 0.0 0.0 0.0 0.0 0.0 0.0 0.0 0.0 0.0 0.0 0.0 0.3 0.0 0.0 0.0 0.0 0.0 0.0 0.0 0.0 0.0 0.0 0.0
0.0 0.0 0.0 0.0 0.0 0.0 0.0 0.0 0.0 0.0 0.0 0.0 0.0 0.0 0.0 0.0 0.0 0.0 0.0 0.0 0.0 0.0 3.6 0.0 0.0 0.0 0.0 0.0 0.0 0.0 0.0 0.0 0.0 0.0 0.6 0.7 0.0 0.2 0.0 0.0 0.0 0.4 0.0 0.0 0.1 0.6 0.9
0.0 0.0 0.0 0.0 0.0 0.0 0.0 0.0 0.0 0.0 0.0 0.0 0.0 0.0 0.0 0.0 0.0 0.0 0.0 0.0 0.0 0.0 7.5 0.0 0.0 0.0 0.0 0.0 0.0 0.0 0.0 0.0 0.0 0.0 1.4 1.6 0.0 2.2 0.8 0.0 0.0 0.2 0.0 0.0 0.0 0.1 0.2
0.0 0.0 0.0 0.0 0.0 0.0 0.0 0.0 0.0 0.0 0.0 0.0 0.0 0.0 0.0 0.0 0.0 0.0 0.0 0.0 0.0 5.9 7.2 0.0 0.1 1.0 0.0 0.0 0.0 0.0 0.0 0.0 0.0 0.0 0.0 0.3 0.0 0.0 0.0 0.0 0.0 0.0 0.0 0.0 0.0 0.4 1.8
0.0 0.0 0.0 0.0 0.0 0.0 0.0 0.0 0.0 0.0 0.0 0.0 0.0 0.0 0.0 0.0 0.0 0.0 0.0 0.0 11.0 10.6 0.0 0.2 0.3 2.4 1.2 0.7 1.6 0.0 0.0 0.0 0.0 0.3 0.4 0.0 0.0 0.0 0.0 0.0 0.0 0.4 0.2 0.9 2.1 1.8 0.4
0.0 0.0 0.0 0.0 0.0 0.0 0.0 0.0 0.0 0.0 0.0 0.0 0.0 0.0 0.0 0.0 0.0 0.0 0.0 4.2 16.0 1.4 0.1 0.0 0.6 2.2 1.6 1.6 2.1 0.0 0.0 0.0 0.0 0.0 0.0 0.4 1.7 0.0 0.0 0.0 0.8 0.0 0.1 0.0 3.1 1.5 1.0
0.0 0.0 0.0 0.0 0.0 0.0 0.0 0.0 0.0 0.0 0.0 0.0 0.0 0.0 0.0 0.0 0.0 0.0 0.5 21.0 9.6 1.4 0.0 0.0 0.0 0.7 1.0 0.8 4.0 5.1 3.7 0.5 0.0 0.0 1.9 1.2 1.4 0.0 0.0 0.0 0.0 0.2 0.6 0.0 1.6 1.5 2.2
0.0 0.0 0.0 0.0 0.0 0.0 0.0 0.0 0.0 0.0 0.0 0.0 0.0 0.0 0.0 0.0 0.0 0.0 14.7 11.4 2.4 0.1 0.0 0.0 0.0 0.1 1.0 0.8 1.2 6.9 3.1 1.6 0.1 0.0 0.0 0.7 0.9 0.0 0.0 0.0 0.0 0.0 0.0 0.3 0.9 4.9 3.5
0.0 0.0 0.0 0.0 0.0 0.0 0.0 0.0 0.0 0.0 0.0 0.0 0.0 1.9 0.0 0.0 0.0 0.0 26.2 2.1 0.0 0.0 0.0 0.0 0.1 0.4 0.1 0.5 0.4 3.4 3.4 2.0 0.0 0.0 0.0 0.0 1.3 0.3 0.0 2.0 0.0 0.3 0.4 0.7 1.6 1.8 5.7
0.0 0.0 0.0 0.0 0.0 0.0 0.0 0.0 0.0 0.0 0.0 0.0 0.0 15.6 0.0 0.0 11.8 11.8 11.5 0.2 0.0 0.0 0.0 0.2 0.0 0.0 1.0 1.3 0.5 0.2 1.9 0.5 0.0 0.0 0.7 0.0 0.2 0.8 0.0 0.0 0.0 0.0 0.2 0.3 4.1 4.1 3.7
0.0 0.0 0.0 0.0 0.0 0.0 0.0 0.0 0.0 0.0 0.0 0.0 4.7 5.1 0.0 0.0 14.7 6.2 0.7 0.9 0.0 0.0 0.0 0.2 0.6 0.4 0.0 1.3 0.7 1.5 0.7 0.0 0.0 0.0 1.2 0.0 1.3 1.3 0.8 0.0 0.0 0.1 0.2 1.0 2.1 2.2 5.6
0.0 0.0 0.0 0.0 0.0 0.0 0.0 0.0 0.0 0.0 0.0 0.0 0.1 34.1 0.0 0.0 0.9 4.2 2.2 3.1 2.1 0.0 0.0 0.0 0.1 0.0 0.1 0.3 0.2 0.2 1.4 0.0 0.0 0.0 0.0 0.0 0.9 4.5 5.1 5.7 3.5 1.3 0.2 0.2 0.7 4.8 7.2
0.0 0.0 0.0 0.0 0.0 0.0 0.0 0.0 0.0 0.0 0.0 0.0 14.4 26.0 0.0 26.9 19.8 1.3 3.8 1.6 1.9 2.5 0.0 0.0 0.8 0.4 0.5 2.5 1.3 2.6 1.3 1.3 0.0 0.0 0.0 0.0 2.3 1.2 0.2 0.8 6.1 4.1 0.7 0.6 1.9 0.9 3.0
0.0 0.0 0.0 0.0 0.0 0.0 0.0 0.0 0.0 0.0 0.0 0.0 54.3 15.8 1.4 0.9 0.2 3.9 3.2 3.1 0.7 1.8 2.9 2.2 1.6 0.2 0.9 2.0 1.7 1.6 1.8 1.4 1.4 0.0 0.0 0.0 3.6 1.0 0.2 0.2 2.6 3.0 0.5 0.3 0.6 1.3 2.9
0.0 0.0 0.0 0.0 0.0 0.0 0.0 0.0 0.0 0.0 0.0 0.0 0.0 0.0 1.7 2.7 4.7 9.3 6.1 2.3 2.0 0.3 0.0 0.1 0.0 3.0 3.1 1.2 0.0 0.0 0.0 0.0 0.0 1.0 2.0 2.0 7.3 9.9 6.2 0.2 5.6 8.3 7.3 4.9 2.4 2.1 2.4
0.0 0.0 0.0 0.0 0.0 0.0 0.0 0.0 0.0 0.0 0.0 0.0 0.0 0.0 17.6 21.1 4.8 5.2 0.5 0.3 1.5 1.6 2.0 0.0 0.0 3.0 0.0 0.0 0.0 0.0 0.0 0.0 0.0 0.0 0.0 3.1 6.9 14.1 11.3 6.7 25.4 7.3 4.8 5.9 8.6 5.6 6.7
0.0 0.0 0.0 0.0 0.0 0.0 0.0 0.0 0.0 0.0 0.0 0.0 0.0 0.0 6.7 25.2 5.0 6.9 4.0 3.1 2.1 2.3 4.4 2.5 0.0 0.0 0.0 0.0 9.2 13.3 11.1 4.4 2.1 0.0 0.0 0.0 2.8 16.5 26.1 19.7 5.2 1.4 0.0 0.8 2.2 2.6 1.9
0.0 0.0 0.0 0.0 0.0 0.0 0.0 0.0 0.0 0.0 0.0 0.0 0.0 0.0 0.5 25.4 12.9 0.2 4.2 3.8 5.5 6.3 5.8 4.4 0.0 0.0 0.0 8.6 17.3 31.6 20.4 4.3 4.0 3.2 0.0 0.0 0.3 11.0 25.5 31.0 14.2 1.8 0.0 0.0 0.7 5.1 2.5
0.0 0.0 0.0 0.0 0.0 0.0 0.0 0.0 0.0 0.0 0.0 0.0 0.0 0.0 0.0 40.3 1.3 0.2 2.0 4.3 0.0 2.3 4.8 4.2 1.0 0.0 0.0 13.9 18.8 23.1 13.0 0.6 5.1 5.5 3.9 3.8 8.8 14.8 10.0 27.6 6.1 0.0 0.0 0.0 7.9 8.8 0.5
0.0 0.0 0.0 0.0 0.0 0.0 0.0 0.0 0.0 0.0 0.0 0.0 0.0 0.0 0.0 28.7 8.3 0.0 0.0 1.1 1.2 1.1 7.8 6.1 9.9 11.3 11.0 14.2 18.8 21.7 16.6 5.7 3.5 3.4 7.6 4.0 10.1 13.1 13.0 19.3 14.9 0.0 0.0 2.5 2.7 0.6 0.6
0.0 0.0 0.0 0.0 0.0 0.0 0.0 0.0 0.0 0.0 0.0 0.0 0.0 0.0 0.0 5.7 11.1 0.0 0.0 0.0 0.0 0.0 0.2 0.1 2.5 2.6 4.1 12.3 13.5 12.5 20.2 13.6 8.4 8.2 0.0 10.5 4.3 8.7 8.4 8.7 2.0 0.3 1.5 1.2 0.6 0.3 0.7

GFSGBSN_prec_snow_369.txt.gz
Snowfall_Accumulation
0.0 0.0 0.0 0.0 0.0 0.0 0.0 0.0 0.0 0.0 0.0 0.0 0.0 0.0 0.0 0.0 0.0 0.0 0.0 0.0 0.0 0.0 0.0 0.0 0.0 0.0 0.0 0.0 0.0 0.0 0.0 0.0 0.0 0.0 0.0 0.0 0.0 0.0 0.0 0.0 0.0 0.0 0.0 0.0 0.0 0.0 0.0
0.0 0.0 0.0 0.0 0.0 0.0 0.0 0.0 0.0 0.0 0.0 0.0 0.0 0.0 0.0 0.0 0.0 0.0 0.0 0.0 0.0 0.0 0.0 0.0 0.0 0.0 0.0 0.0 0.0 0.0 0.0 0.0 0.0 0.0 0.0 0.0 0.0 0.0 0.0 0.0 0.0 0.0 0.0 0.0 0.0 0.0 0.0
0.0 0.0 0.0 0.0 0.0 0.0 0.0 0.0 0.0 0.0 0.0 0.0 0.0 0.0 0.0 0.0 0.0 0.0 0.0 0.0 0.0 0.0 0.0 0.0 0.0 0.0 0.0 0.0 0.0 0.0 0.0 0.0 0.0 0.0 0.0 0.0 0.0 0.0 0.0 0.0 0.0 0.0 0.0 0.0 0.0 0.0 0.0
0.0 0.0 0.0 0.0 0.0 0.0 0.0 0.0 0.0 0.0 0.0 0.0 0.0 0.0 0.0 0.0 0.0 0.0 0.0 0.0 0.0 0.0 0.0 0.0 0.0 0.0 0.0 0.0 0.0 0.0 0.0 0.0 0.0 0.0 0.0 0.0 0.0 0.0 0.0 0.0 0.0 0.0 0.0 0.0 0.0 0.0 0.0
0.0 0.0 0.0 0.0 0.0 0.0 0.0 0.0 0.0 0.0 0.0 0.0 0.0 0.0 0.0 0.0 0.0 0.0 0.0 0.0 0.0 0.0 0.0 0.0 0.0 0.0 0.0 0.0 0.0 0.0 0.0 0.0 0.0 0.0 0.0 0.0 0.0 0.0 0.0 0.0 0.0 0.0 0.0 0.0 0.0 0.0 0.0
0.0 0.0 0.0 0.0 0.0 0.0 0.0 0.0 0.0 0.0 0.0 0.0 0.0 0.0 0.0 0.0 0.0 0.0 0.0 0.0 0.0 0.0 0.0 0.0 0.0 0.1 0.0 0.0 0.0 0.0 0.0 0.0 0.0 0.0 0.0 0.0 0.0 0.0 0.0 0.0 0.0 0.0 0.0 0.0 0.0 0.0 0.0
0.0 0.0 0.0 0.0 0.0 0.0 0.0 0.0 0.0 0.0 0.0 0.0 0.0 0.0 0.0 0.0 0.0 0.0 0.0 0.0 0.0 0.0 0.0 0.0 0.0 0.0 0.0 0.0 0.0 0.0 0.0 0.0 0.0 0.0 0.0 0.0 0.0 0.0 0.0 0.0 0.0 0.0 0.0 0.0 0.0 0.0 0.0
0.0 0.0 0.0 0.0 0.0 0.0 0.0 0.0 0.0 0.0 0.0 0.0 0.0 0.0 0.0 0.0 0.0 0.0 0.0 0.0 0.0 0.0 0.7 0.0 0.0 0.0 0.0 0.0 0.0 0.0 0.0 0.0 0.0 0.0 0.0 0.0 0.2 0.0 0.0 0.0 0.0 0.0 0.2 0.0 0.0 0.0 0.0
0.0 0.0 0.0 0.0 0.0 0.0 0.0 0.0 0.0 0.0 0.0 0.0 0.0 0.0 0.0 0.0 0.0 0.0 0.0 0.0 0.0 0.0 1.6 0.0 0.0 0.0 0.0 0.0 0.0 0.0 0.0 0.0 0.0 0.0 0.0 0.3 0.0 0.0 0.0 0.0 0.0 0.0 0.0 0.0 0.0 0.0 0.0
0.0 0.0 0.0 0.0 0.0 0.0 0.0 0.0 0.0 0.0 0.0 0.0 0.0 0.0 0.0 0.0 0.0 0.0 0.0 0.0 0.0 0.0 3.6 0.0 0.0 0.0 0.0 0.0 0.0 0.0 0.0 0.0 0.0 0.0 0.6 0.7 0.0 0.2 0.0 0.0 0.0 0.4 0.0 0.0 0.1 0.6 0.9
0.0 0.0 0.0 0.0 0.0 0.0 0.0 0.0 0.0 0.0 0.0 0.0 0.0 0.0 0.0 0.0 0.0 0.0 0.0 0.0 0.0 0.0 7.5 0.0 0.0 0.0 0.0 0.0 0.0 0.0 0.0 0.0 0.0 0.0 1.4 1.6 0.0 2.2 0.8 0.0 0.0 0.2 0.0 0.0 0.0 0.1 0.2
0.0 0.0 0.0 0.0 0.0 0.0 0.0 0.0 0.0 0.0 0.0 0.0 0.0 0.0 0.0 0.0 0.0 0.0 0.0 0.0 0.0 5.9 7.2 0.0 0.1 1.0 0.0 0.0 0.0 0.0 0.0 0.0 0.0 0.0 0.0 0.3 0.0 0.0 0.0 0.0 0.0 0.0 0.0 0.0 0.0 0.4 1.8
0.0 0.0 0.0 0.0 0.0 0.0 0.0 0.0 0.0 0.0 0.0 0.0 0.0 0.0 0.0 0.0 0.0 0.0 0.0 0.0 11.0 10.6 0.0 0.2 0.3 2.4 1.2 0.7 1.6 0.0 0.0 0.0 0.0 0.3 0.4 0.0 0.0 0.0 0.0 0.0 0.0 0.4 0.2 0.9 2.1 1.8 0.4
0.0 0.0 0.0 0.0 0.0 0.0 0.0 0.0 0.0 0.0 0.0 0.0 0.0 0.0 0.0 0.0 0.0 0.0 0.0 4.2 16.0 1.4 0.1 0.0 0.6 2.2 1.6 1.6 2.1 0.0 0.0 0.0 0.0 0.0 0.0 0.4 1.7 0.0 0.0 0.0 0.8 0.0 0.1 0.0 3.1 1.5 1.0
0.0 0.0 0.0 0.0 0.0 0.0 0.0 0.0 0.0 0.0 0.0 0.0 0.0 0.0 0.0 0.0 0.0 0.0 0.5 21.0 9.6 1.4 0.0 0.0 0.0 0.7 1.0 0.8 4.0 5.1 3.7 0.5 0.0 0.0 1.9 1.2 1.4 0.0 0.0 0.0 0.0 0.2 0.6 0.0 1.6 1.5 2.2
0.0 0.0 0.0 0.0 0.0 0.0 0.0 0.0 0.0 0.0 0.0 0.0 0.0 0.0 0.0 0.0 0.0 0.0 14.7 11.4 2.4 0.1 0.0 0.0 0.0 0.1 1.0 0.8 1.2 6.9 3.1 1.6 0.1 0.0 0.0 0.7 0.9 0.0 0.0 0.0 0.0 0.0 0.0 0.3 0.9 4.9 3.5
0.0 0.0 0.0 0.0 0.0 0.0 0.0 0.0 0.0 0.0 0.0 0.0 0.0 1.9 0.0 0.0 0.0 0.0 26.2 2.1 0.0 0.0 0.0 0.0 0.1 0.4 0.1 0.5 0.4 3.4 3.4 2.0 0.0 0.0 0.0 0.0 1.3 0.3 0.0 2.0 0.0 0.3 0.4 0.7 1.6 1.8 5.7
0.0 0.0 0.0 0.0 0.0 0.0 0.0 0.0 0.0 0.0 0.0 0.0 0.0 15.6 0.0 0.0 11.8 11.8 11.5 0.2 0.0 0.0 0.0 0.2 0.0 0.0 1.0 1.3 0.5 0.2 1.9 0.5 0.0 0.0 0.7 0.0 0.2 0.8 0.0 0.0 0.0 0.0 0.2 0.3 4.1 4.1 3.7
0.0 0.0 0.0 0.0 0.0 0.0 0.0 0.0 0.0 0.0 0.0 0.0 4.7 5.1 0.0 0.0 14.7 6.2 0.7 0.9 0.0 0.0 0.0 0.2 0.6 0.4 0.0 1.3 0.7 1.5 0.7 0.0 0.0 0.0 1.2 0.0 1.3 1.3 0.8 0.0 0.0 0.1 0.2 1.0 2.1 2.2 5.6
0.0 0.0 0.0 0.0 0.0 0.0 0.0 0.0 0.0 0.0 0.0 0.0 0.1 34.1 0.0 0.0 0.9 4.2 2.2 3.1 2.1 0.0 0.0 0.0 0.1 0.0 0.1 0.3 0.2 0.2 1.4 0.0 0.0 0.0 0.0 0.0 0.9 4.5 5.1 5.7 3.5 1.3 0.2 0.2 0.7 4.8 7.2
0.0 0.0 0.0 0.0 0.0 0.0 0.0 0.0 0.0 0.0 0.0 0.0 14.4 26.0 0.0 26.9 19.8 1.3 3.8 1.6 1.9 2.5 0.0 0.0 0.8 0.4 0.5 2.5 1.3 2.6 1.3 1.3 0.0 0.0 0.0 0.0 2.3 1.2 0.2 0.8 6.1 4.1 0.7 0.6 1.9 0.9 3.0
0.0 0.0 0.0 0.0 0.0 0.0 0.0 0.0 0.0 0.0 0.0 0.0 54.9 15.8 1.4 0.9 0.2 3.9 3.2 3.1 0.7 1.8 2.9 2.2 1.6 0.2 0.9 2.0 1.7 1.6 1.8 1.4 1.4 0.0 0.0 0.0 3.6 1.0 0.2 0.2 2.6 3.0 0.5 0.3 0.6 1.3 2.9
0.0 0.0 0.0 0.0 0.0 0.0 0.0 0.0 0.0 0.0 0.0 0.0 0.0 0.0 1.7 2.7 4.7 9.3 6.1 2.3 2.0 0.3 0.0 0.1 0.0 3.0 3.1 1.2 0.0 0.0 0.0 0.0 0.0 1.0 2.0 2.0 7.3 9.9 6.2 0.2 5.6 8.3 7.3 4.9 2.4 2.1 2.4
0.0 0.0 0.0 0.0 0.0 0.0 0.0 0.0 0.0 0.0 0.0 0.0 0.0 0.0 17.6 21.1 4.8 5.2 0.5 0.3 1.5 1.6 2.0 0.0 0.0 3.0 0.0 0.0 0.0 0.0 0.0 0.0 0.0 0.0 0.0 3.1 6.9 14.1 11.3 6.7 25.4 7.3 4.8 5.9 8.6 5.6 6.7
0.0 0.0 0.0 0.0 0.0 0.0 0.0 0.0 0.0 0.0 0.0 0.0 0.0 0.0 6.7 25.2 5.0 6.9 4.0 3.1 2.1 2.3 4.4 2.5 0.0 0.0 0.0 0.0 9.2 13.3 11.1 4.4 2.1 0.0 0.0 0.0 2.8 16.5 26.1 19.7 5.2 1.4 0.0 0.8 2.2 2.6 1.9
0.0 0.0 0.0 0.0 0.0 0.0 0.0 0.0 0.0 0.0 0.0 0.0 0.0 0.0 0.5 25.5 12.9 0.2 4.2 3.8 5.5 6.3 5.8 4.4 0.0 0.0 0.0 8.6 17.3 31.6 20.4 4.3 4.0 3.2 0.0 0.0 0.3 11.0 25.5 31.0 14.2 1.8 0.0 0.0 0.7 5.1 2.5
0.0 0.0 0.0 0.0 0.0 0.0 0.0 0.0 0.0 0.0 0.0 0.0 0.0 0.0 0.0 40.3 1.3 0.2 2.0 4.3 0.0 2.3 4.8 4.2 1.0 0.0 0.0 13.9 18.8 23.1 13.0 0.6 5.1 5.5 3.9 3.8 8.8 14.8 10.0 27.6 6.1 0.0 0.0 0.0 7.9 8.8 0.5
0.0 0.0 0.0 0.0 0.0 0.0 0.0 0.0 0.0 0.0 0.0 0.0 0.0 0.0 0.0 28.7 8.3 0.0 0.0 1.1 1.2 1.1 7.8 6.1 9.9 11.3 11.0 14.2 18.8 21.7 16.6 5.7 3.5 3.4 7.6 4.0 10.1 13.1 13.0 19.3 14.9 0.0 0.0 2.5 2.7 0.6 0.6
0.0 0.0 0.0 0.0 0.0 0.0 0.0 0.0 0.0 0.0 0.0 0.0 0.0 0.0 0.0 5.7 11.1 0.0 0.0 0.0 0.0 0.0 0.2 0.1 2.5 2.6 4.1 12.3 13.5 12.5 20.2 13.6 8.4 8.2 0.0 10.5 4.3 8.7 8.4 8.7 2.0 0.3 1.5 1.2 0.6 0.3 0.7

GFSGBSN_prec_snow_375.txt.gz
Snowfall_Accumulation
0.0 0.0 0.0 0.0 0.0 0.0 0.0 0.0 0.0 0.0 0.0 0.0 0.0 0.0 0.0 0.0 0.0 0.0 0.0 0.0 0.0 0.0 0.0 0.0 0.0 0.0 0.0 0.0 0.0 0.0 0.0 0.0 0.0 0.0 0.0 0.0 0.0 0.0 0.0 0.0 0.0 0.0 0.0 0.0 0.0 0.0 0.0
0.0 0.0 0.0 0.0 0.0 0.0 0.0 0.0 0.0 0.0 0.0 0.0 0.0 0.0 0.0 0.0 0.0 0.0 0.0 0.0 0.0 0.0 0.0 0.0 0.0 0.0 0.0 0.0 0.0 0.0 0.0 0.0 0.0 0.0 0.0 0.0 0.0 0.0 0.0 0.0 0.0 0.0 0.0 0.0 0.0 0.0 0.0
0.0 0.0 0.0 0.0 0.0 0.0 0.0 0.0 0.0 0.0 0.0 0.0 0.0 0.0 0.0 0.0 0.0 0.0 0.0 0.0 0.0 0.0 0.0 0.0 0.0 0.0 0.0 0.0 0.0 0.0 0.0 0.0 0.0 0.0 0.0 0.0 0.0 0.0 0.0 0.0 0.0 0.0 0.0 0.0 0.0 0.0 0.0
0.0 0.0 0.0 0.0 0.0 0.0 0.0 0.0 0.0 0.0 0.0 0.0 0.0 0.0 0.0 0.0 0.0 0.0 0.0 0.0 0.0 0.0 0.0 0.0 0.0 0.0 0.0 0.0 0.0 0.0 0.0 0.0 0.0 0.0 0.0 0.0 0.0 0.0 0.0 0.0 0.0 0.0 0.0 0.0 0.0 0.0 0.0
0.0 0.0 0.0 0.0 0.0 0.0 0.0 0.0 0.0 0.0 0.0 0.0 0.0 0.0 0.0 0.0 0.0 0.0 0.0 0.0 0.0 0.0 0.0 0.0 0.0 0.0 0.0 0.0 0.0 0.0 0.0 0.0 0.0 0.0 0.0 0.0 0.0 0.0 0.0 0.0 0.0 0.0 0.0 0.0 0.0 0.0 0.0
0.0 0.0 0.0 0.0 0.0 0.0 0.0 0.0 0.0 0.0 0.0 0.0 0.0 0.0 0.0 0.0 0.0 0.0 0.0 0.0 0.0 0.0 0.0 0.0 0.0 0.1 0.0 0.0 0.0 0.0 0.0 0.0 0.0 0.0 0.0 0.0 0.0 0.0 0.0 0.0 0.0 0.0 0.0 0.0 0.0 0.0 0.0
0.0 0.0 0.0 0.0 0.0 0.0 0.0 0.0 0.0 0.0 0.0 0.0 0.0 0.0 0.0 0.0 0.0 0.0 0.0 0.0 0.0 0.0 0.0 0.0 0.0 0.0 0.0 0.0 0.0 0.0 0.0 0.0 0.0 0.0 0.0 0.0 0.0 0.0 0.0 0.0 0.0 0.0 0.0 0.0 0.0 0.0 0.0
0.0 0.0 0.0 0.0 0.0 0.0 0.0 0.0 0.0 0.0 0.0 0.0 0.0 0.0 0.0 0.0 0.0 0.0 0.0 0.0 0.0 0.0 0.7 0.0 0.0 0.0 0.0 0.0 0.0 0.0 0.0 0.0 0.0 0.0 0.0 0.0 0.2 0.0 0.0 0.0 0.0 0.0 0.2 0.0 0.0 0.0 0.0
0.0 0.0 0.0 0.0 0.0 0.0 0.0 0.0 0.0 0.0 0.0 0.0 0.0 0.0 0.0 0.0 0.0 0.0 0.0 0.0 0.0 0.0 1.6 0.0 0.0 0.0 0.0 0.0 0.0 0.0 0.0 0.0 0.0 0.0 0.0 0.3 0.0 0.0 0.0 0.0 0.0 0.0 0.0 0.0 0.0 0.0 0.0
0.0 0.0 0.0 0.0 0.0 0.0 0.0 0.0 0.0 0.0 0.0 0.0 0.0 0.0 0.0 0.0 0.0 0.0 0.0 0.0 0.0 0.0 3.6 0.0 0.0 0.0 0.0 0.0 0.0 0.0 0.0 0.0 0.0 0.0 0.6 0.7 0.0 0.2 0.0 0.0 0.0 0.4 0.0 0.0 0.1 0.6 0.9
0.0 0.0 0.0 0.0 0.0 0.0 0.0 0.0 0.0 0.0 0.0 0.0 0.0 0.0 0.0 0.0 0.0 0.0 0.0 0.0 0.0 0.0 7.5 0.0 0.0 0.0 0.0 0.0 0.0 0.0 0.0 0.0 0.0 0.0 1.4 1.6 0.0 2.2 0.8 0.0 0.0 0.2 0.0 0.0 0.0 0.1 0.2
0.0 0.0 0.0 0.0 0.0 0.0 0.0 0.0 0.0 0.0 0.0 0.0 0.0 0.0 0.0 0.0 0.0 0.0 0.0 0.0 0.0 5.9 7.2 0.0 0.1 1.0 0.0 0.0 0.0 0.0 0.0 0.0 0.0 0.0 0.0 0.3 0.0 0.0 0.0 0.0 0.0 0.0 0.0 0.0 0.0 0.4 1.8
0.0 0.0 0.0 0.0 0.0 0.0 0.0 0.0 0.0 0.0 0.0 0.0 0.0 0.0 0.0 0.0 0.0 0.0 0.0 0.0 11.0 10.6 0.0 0.2 0.3 2.4 1.2 0.7 1.6 0.0 0.0 0.0 0.0 0.3 0.4 0.0 0.0 0.0 0.0 0.0 0.0 0.4 0.2 0.9 2.1 1.8 0.4
0.0 0.0 0.0 0.0 0.0 0.0 0.0 0.0 0.0 0.0 0.0 0.0 0.0 0.0 0.0 0.0 0.0 0.0 0.0 4.2 16.1 1.4 0.1 0.0 0.6 2.2 1.6 1.6 2.1 0.0 0.0 0.0 0.0 0.0 0.0 0.4 1.7 0.0 0.0 0.0 0.8 0.0 0.1 0.0 3.1 1.5 1.0
0.0 0.0 0.0 0.0 0.0 0.0 0.0 0.0 0.0 0.0 0.0 0.0 0.0 0.0 0.0 0.0 0.0 0.0 0.5 21.1 9.6 1.4 0.0 0.0 0.0 0.7 1.0 0.8 4.0 5.1 3.7 0.5 0.0 0.0 1.9 1.2 1.4 0.0 0.0 0.0 0.0 0.2 0.6 0.0 1.6 1.5 2.2
0.0 0.0 0.0 0.0 0.0 0.0 0.0 0.0 0.0 0.0 0.0 0.0 0.0 0.0 0.0 0.0 0.0 0.0 14.7 11.4 2.4 0.1 0.0 0.0 0.0 0.1 1.0 0.8 1.2 6.9 3.1 1.6 0.1 0.0 0.0 0.7 0.9 0.0 0.0 0.0 0.0 0.0 0.0 0.3 0.9 4.9 3.5
0.0 0.0 0.0 0.0 0.0 0.0 0.0 0.0 0.0 0.0 0.0 0.0 0.0 1.9 0.0 0.0 0.0 0.0 26.4 2.1 0.0 0.0 0.0 0.0 0.1 0.4 0.1 0.5 0.4 3.4 3.4 2.0 0.0 0.0 0.0 0.0 1.3 0.3 0.0 2.0 0.0 0.3 0.4 0.7 1.6 1.8 5.7
0.0 0.0 0.0 0.0 0.0 0.0 0.0 0.0 0.0 0.0 0.0 0.0 0.0 17.0 0.0 0.0 11.8 11.8 11.5 0.2 0.0 0.0 0.0 0.2 0.0 0.0 1.0 1.3 0.5 0.2 1.9 0.5 0.0 0.0 0.7 0.0 0.2 0.8 0.0 0.0 0.0 0.0 0.2 0.3 4.1 4.1 3.7
0.0 0.0 0.0 0.0 0.0 0.0 0.0 0.0 0.0 0.0 0.0 0.0 4.7 5.1 0.0 0.0 15.6 6.2 0.7 0.9 0.0 0.0 0.0 0.2 0.6 0.4 0.0 1.3 0.7 1.5 0.7 0.0 0.0 0.0 1.2 0.0 1.3 1.3 0.8 0.0 0.0 0.1 0.2 1.0 2.1 2.2 5.6
0.0 0.0 0.0 0.0 0.0 0.0 0.0 0.0 0.0 0.0 0.0 0.0 0.1 34.8 0.0 0.0 0.9 4.2 2.2 3.1 2.1 0.0 0.0 0.0 0.1 0.0 0.1 0.3 0.2 0.2 1.4 0.0 0.0 0.0 0.0 0.0 0.9 4.5 5.1 5.7 3.5 1.3 0.2 0.2 0.7 4.8 7.2
0.0 0.0 0.0 0.0 0.0 0.0 0.0 0.0 0.0 0.0 0.0 0.0 14.4 27.4 0.0 28.2 20.2 1.3 3.8 1.6 1.9 2.5 0.0 0.0 0.8 0.4 0.5 2.5 1.3 2.6 1.3 1.3 0.0 0.0 0.0 0.0 2.3 1.2 0.2 0.8 6.1 4.1 0.7 0.6 1.9 0.9 3.0
0.0 0.0 0.0 0.0 0.0 0.0 0.0 0.0 0.0 0.0 0.0 0.0 56.3 15.8 1.4 2.2 0.2 3.9 3.2 3.1 0.7 1.8 2.9 2.2 1.6 0.2 0.9 2.0 1.7 1.6 1.8 1.4 1.4 0.0 0.0 0.0 3.6 1.0 0.2 0.2 2.6 3.0 0.5 0.3 0.6 1.3 2.9
0.0 0.0 0.0 0.0 0.0 0.0 0.0 0.0 0.0 0.0 0.0 0.0 0.0 0.0 3.3 3.3 4.7 9.3 6.1 2.3 2.0 0.3 0.0 0.1 0.0 3.0 3.1 1.2 0.0 0.0 0.0 0.0 0.0 1.0 2.0 2.0 7.3 9.9 6.2 0.2 5.6 8.3 7.3 4.9 2.4 2.1 2.4
0.0 0.0 0.0 0.0 0.0 0.0 0.0 0.0 0.0 0.0 0.0 0.0 0.0 0.0 19.4 22.0 4.8 5.2 0.5 0.3 1.5 1.6 2.0 0.0 0.0 3.0 0.0 0.0 0.0 0.0 0.0 0.0 0.0 0.0 0.0 3.1 6.9 14.1 11.3 6.7 25.4 7.3 4.8 5.9 8.6 5.6 6.7
0.0 0.0 0.0 0.0 0.0 0.0 0.0 0.0 0.0 0.0 0.0 0.0 0.0 0.0 8.6 26.5 5.0 6.9 4.0 3.1 2.1 2.3 4.4 2.5 0.0 0.0 0.0 0.0 9.2 13.3 11.1 4.4 2.1 0.0 0.0 0.0 2.8 16.5 26.1 19.7 5.2 1.4 0.0 0.8 2.2 2.6 1.9
0.0 0.0 0.0 0.0 0.0 0.0 0.0 0.0 0.0 0.0 0.0 0.0 0.0 0.0 0.5 26.6 12.9 0.2 4.2 3.8 5.5 6.3 5.8 4.4 0.0 0.0 0.0 8.6 17.3 31.6 20.4 4.3 4.0 3.2 0.0 0.0 0.3 11.0 25.5 31.0 14.2 1.8 0.0 0.0 0.7 5.1 2.5
0.0 0.0 0.0 0.0 0.0 0.0 0.0 0.0 0.0 0.0 0.0 0.0 0.0 0.0 0.0 41.2 1.3 0.2 2.0 4.3 0.0 2.3 4.8 4.2 1.0 0.0 0.0 13.9 18.8 23.1 13.0 0.6 5.1 5.5 3.9 3.8 8.8 14.8 10.0 27.6 6.1 0.0 0.0 0.0 7.9 8.8 0.5
0.0 0.0 0.0 0.0 0.0 0.0 0.0 0.0 0.0 0.0 0.0 0.0 0.0 0.0 0.0 28.7 8.3 0.0 0.0 1.1 1.2 1.1 7.8 6.1 9.9 11.3 11.0 14.2 18.8 21.7 16.6 5.7 3.5 3.4 7.6 4.0 10.1 13.1 13.0 19.3 14.9 0.0 0.0 2.5 2.7 0.6 0.6
0.0 0.0 0.0 0.0 0.0 0.0 0.0 0.0 0.0 0.0 0.0 0.0 0.0 0.0 0.0 5.7 11.1 0.0 0.0 0.0 0.0 0.0 0.2 0.1 2.5 2.6 4.1 12.3 13.5 12.5 20.2 13.6 8.4 8.2 0.0 10.5 4.3 8.7 8.4 8.7 2.0 0.3 1.5 1.2 0.6 0.3 0.7

GFSGBSN_prec_snow_378.txt.gz
Snowfall_Accumulation
0.0 0.0 0.0 0.0 0.0 0.0 0.0 0.0 0.0 0.0 0.0 0.0 0.0 0.0 0.0 0.0 0.0 0.0 0.0 0.0 0.0 0.0 0.0 0.0 0.0 0.0 0.0 0.0 0.0 0.0 0.0 0.0 0.0 0.0 0.0 0.0 0.0 0.0 0.0 0.0 0.0 0.0 0.0 0.0 0.0 0.0 0.0
0.0 0.0 0.0 0.0 0.0 0.0 0.0 0.0 0.0 0.0 0.0 0.0 0.0 0.0 0.0 0.0 0.0 0.0 0.0 0.0 0.0 0.0 0.0 0.0 0.0 0.0 0.0 0.0 0.0 0.0 0.0 0.0 0.0 0.0 0.0 0.0 0.0 0.0 0.0 0.0 0.0 0.0 0.0 0.0 0.0 0.0 0.0
0.0 0.0 0.0 0.0 0.0 0.0 0.0 0.0 0.0 0.0 0.0 0.0 0.0 0.0 0.0 0.0 0.0 0.0 0.0 0.0 0.0 0.0 0.0 0.0 0.0 0.0 0.0 0.0 0.0 0.0 0.0 0.0 0.0 0.0 0.0 0.0 0.0 0.0 0.0 0.0 0.0 0.0 0.0 0.0 0.0 0.0 0.0
0.0 0.0 0.0 0.0 0.0 0.0 0.0 0.0 0.0 0.0 0.0 0.0 0.0 0.0 0.0 0.0 0.0 0.0 0.0 0.0 0.0 0.0 0.0 0.0 0.0 0.0 0.0 0.0 0.0 0.0 0.0 0.0 0.0 0.0 0.0 0.0 0.0 0.0 0.0 0.0 0.0 0.0 0.0 0.0 0.0 0.0 0.0
0.0 0.0 0.0 0.0 0.0 0.0 0.0 0.0 0.0 0.0 0.0 0.0 0.0 0.0 0.0 0.0 0.0 0.0 0.0 0.0 0.0 0.0 0.0 0.0 0.0 0.0 0.0 0.0 0.0 0.0 0.0 0.0 0.0 0.0 0.0 0.0 0.0 0.0 0.0 0.0 0.0 0.0 0.0 0.0 0.0 0.0 0.0
0.0 0.0 0.0 0.0 0.0 0.0 0.0 0.0 0.0 0.0 0.0 0.0 0.0 0.0 0.0 0.0 0.0 0.0 0.0 0.0 0.0 0.0 0.0 0.0 0.0 0.1 0.0 0.0 0.0 0.0 0.0 0.0 0.0 0.0 0.0 0.0 0.0 0.0 0.0 0.0 0.0 0.0 0.0 0.0 0.0 0.0 0.0
0.0 0.0 0.0 0.0 0.0 0.0 0.0 0.0 0.0 0.0 0.0 0.0 0.0 0.0 0.0 0.0 0.0 0.0 0.0 0.0 0.0 0.0 0.0 0.0 0.0 0.0 0.0 0.0 0.0 0.0 0.0 0.0 0.0 0.0 0.0 0.0 0.0 0.0 0.0 0.0 0.0 0.0 0.0 0.0 0.0 0.0 0.0
0.0 0.0 0.0 0.0 0.0 0.0 0.0 0.0 0.0 0.0 0.0 0.0 0.0 0.0 0.0 0.0 0.0 0.0 0.0 0.0 0.0 0.0 0.7 0.0 0.0 0.0 0.0 0.0 0.0 0.0 0.0 0.0 0.0 0.0 0.0 0.0 0.2 0.0 0.0 0.0 0.0 0.0 0.2 0.0 0.0 0.0 0.0
0.0 0.0 0.0 0.0 0.0 0.0 0.0 0.0 0.0 0.0 0.0 0.0 0.0 0.0 0.0 0.0 0.0 0.0 0.0 0.0 0.0 0.0 1.6 0.0 0.0 0.0 0.0 0.0 0.0 0.0 0.0 0.0 0.0 0.0 0.0 0.3 0.0 0.0 0.0 0.0 0.0 0.0 0.0 0.0 0.0 0.0 0.0
0.0 0.0 0.0 0.0 0.0 0.0 0.0 0.0 0.0 0.0 0.0 0.0 0.0 0.0 0.0 0.0 0.0 0.0 0.0 0.0 0.0 0.0 3.6 0.0 0.0 0.0 0.0 0.0 0.0 0.0 0.0 0.0 0.0 0.0 0.6 0.7 0.0 0.2 0.0 0.0 0.0 0.4 0.0 0.0 0.1 0.6 0.9
0.0 0.0 0.0 0.0 0.0 0.0 0.0 0.0 0.0 0.0 0.0 0.0 0.0 0.0 0.0 0.0 0.0 0.0 0.0 0.0 0.0 0.0 7.5 0.0 0.0 0.0 0.0 0.0 0.0 0.0 0.0 0.0 0.0 0.0 1.4 1.6 0.0 2.2 0.8 0.0 0.0 0.2 0.0 0.0 0.0 0.1 0.2
0.0 0.0 0.0 0.0 0.0 0.0 0.0 0.0 0.0 0.0 0.0 0.0 0.0 0.0 0.0 0.0 0.0 0.0 0.0 0.0 0.0 5.9 7.2 0.0 0.1 1.0 0.0 0.0 0.0 0.0 0.0 0.0 0.0 0.0 0.0 0.3 0.0 0.0 0.0 0.0 0.0 0.0 0.0 0.0 0.0 0.4 1.8
0.0 0.0 0.0 0.0 0.0 0.0 0.0 0.0 0.0 0.0 0.0 0.0 0.0 0.0 0.0 0.0 0.0 0.0 0.0 0.0 11.0 10.6 0.0 0.2 0.3 2.4 1.2 0.7 1.6 0.0 0.0 0.0 0.0 0.3 0.4 0.0 0.0 0.0 0.0 0.0 0.0 0.4 0.2 0.9 2.1 1.8 0.4
0.0 0.0 0.0 0.0 0.0 0.0 0.0 0.0 0.0 0.0 0.0 0.0 0.0 0.0 0.0 0.0 0.0 0.0 0.0 4.2 16.1 1.4 0.1 0.0 0.6 2.2 1.6 1.6 2.1 0.0 0.0 0.0 0.0 0.0 0.0 0.4 1.7 0.0 0.0 0.0 0.8 0.0 0.1 0.0 3.1 1.5 1.0
0.0 0.0 0.0 0.0 0.0 0.0 0.0 0.0 0.0 0.0 0.0 0.0 0.0 0.0 0.0 0.0 0.0 0.0 0.5 21.1 9.6 1.4 0.0 0.0 0.0 0.7 1.0 0.8 4.0 5.1 3.7 0.5 0.0 0.0 1.9 1.2 1.4 0.0 0.0 0.0 0.0 0.2 0.6 0.0 1.6 1.5 2.2
0.0 0.0 0.0 0.0 0.0 0.0 0.0 0.0 0.0 0.0 0.0 0.0 0.0 0.0 0.0 0.0 0.0 0.0 15.4 11.5 2.4 0.1 0.0 0.0 0.0 0.1 1.0 0.8 1.2 6.9 3.1 1.6 0.1 0.0 0.0 0.7 0.9 0.0 0.0 0.0 0.0 0.0 0.0 0.3 0.9 4.9 3.5
0.0 0.0 0.0 0.0 0.0 0.0 0.0 0.0 0.0 0.0 0.0 0.0 0.0 1.9 0.0 0.0 0.0 0.0 27.2 2.1 0.0 0.0 0.0 0.0 0.1 0.4 0.1 0.5 0.4 3.4 3.4 2.0 0.0 0.0 0.0 0.0 1.3 0.3 0.0 2.0 0.0 0.3 0.4 0.7 1.6 1.8 5.7
0.0 0.0 0.0 0.0 0.0 0.0 0.0 0.0 0.0 0.0 0.0 0.0 0.0 17.0 0.0 0.0 13.1 12.9 11.8 0.2 0.0 0.0 0.0 0.2 0.0 0.0 1.0 1.3 0.5 0.2 1.9 0.5 0.0 0.0 0.7 0.0 0.2 0.8 0.0 0.0 0.0 0.0 0.2 0.3 4.1 4.1 3.7
0.0 0.0 0.0 0.0 0.0 0.0 0.0 0.0 0.0 0.0 0.0 0.0 4.7 5.1 0.0 0.0 17.2 6.7 0.7 0.9 0.0 0.0 0.0 0.2 0.6 0.4 0.0 1.3 0.7 1.5 0.7 0.0 0.0 0.0 1.2 0.0 1.3 1.3 0.8 0.0 0.0 0.1 0.2 1.0 2.1 2.2 5.6
0.0 0.0 0.0 0.0 0.0 0.0 0.0 0.0 0.0 0.0 0.0 0.0 0.1 35.0 0.0 0.0 0.9 4.8 2.2 3.1 2.1 0.0 0.0 0.0 0.1 0.0 0.1 0.3 0.2 0.2 1.4 0.0 0.0 0.0 0.0 0.0 0.9 4.5 5.1 5.7 3.5 1.3 0.2 0.2 0.7 4.8 7.2
0.0 0.0 0.0 0.0 0.0 0.0 0.0 0.0 0.0 0.0 0.0 0.0 14.4 27.6 0.0 29.3 21.2 2.2 4.0 1.6 1.9 2.5 0.0 0.0 0.8 0.4 0.5 2.5 1.3 2.6 1.3 1.3 0.0 0.0 0.0 0.0 2.3 1.2 0.2 0.8 6.1 4.1 0.7 0.6 1.9 0.9 3.0
0.0 0.0 0.0 0.0 0.0 0.0 0.0 0.0 0.0 0.0 0.0 0.0 56.3 15.9 1.4 3.1 0.2 4.8 3.2 3.1 0.7 1.8 2.9 2.2 1.6 0.2 0.9 2.0 1.7 1.6 1.8 1.4 1.4 0.0 0.0 0.0 3.6 1.0 0.2 0.2 2.6 3.0 0.5 0.3 0.6 1.3 2.9
0.0 0.0 0.0 0.0 0.0 0.0 0.0 0.0 0.0 0.0 0.0 0.0 0.0 0.0 3.3 3.3 6.1 10.8 6.1 2.3 2.0 0.3 0.0 0.1 0.0 3.0 3.1 1.2 0.0 0.0 0.0 0.0 0.0 1.0 2.0 2.0 7.3 9.9 6.2 0.2 5.6 8.3 7.3 4.9 2.4 2.1 2.4
0.0 0.0 0.0 0.0 0.0 0.0 0.0 0.0 0.0 0.0 0.0 0.0 0.0 0.0 19.8 22.2 5.9 6.4 0.8 0.3 1.5 1.6 2.0 0.0 0.0 3.0 0.0 0.0 0.0 0.0 0.0 0.0 0.0 0.0 0.0 3.1 6.9 14.1 11.3 6.7 25.4 7.3 4.8 5.9 8.6 5.6 6.7
0.0 0.0 0.0 0.0 0.0 0.0 0.0 0.0 0.0 0.0 0.0 0.0 0.0 0.0 8.6 26.5 5.0 7.9 4.0 3.1 2.1 2.3 4.4 2.5 0.0 0.0 0.0 0.0 9.2 13.3 11.1 4.4 2.1 0.0 0.0 0.0 2.8 16.5 26.1 19.7 5.2 1.4 0.0 0.8 2.2 2.6 1.9
0.0 0.0 0.0 0.0 0.0 0.0 0.0 0.0 0.0 0.0 0.0 0.0 0.0 0.0 0.5 26.9 12.9 0.2 4.5 3.8 5.5 6.3 5.8 4.4 0.0 0.0 0.0 8.6 17.3 31.6 20.4 4.3 4.0 3.2 0.0 0.0 0.3 11.0 25.5 31.0 14.2 1.8 0.0 0.0 0.7 5.1 2.5
0.0 0.0 0.0 0.0 0.0 0.0 0.0 0.0 0.0 0.0 0.0 0.0 0.0 0.0 0.0 41.4 1.3 0.2 2.6 4.3 0.0 2.3 4.8 4.2 1.0 0.0 0.0 13.9 18.8 23.1 13.0 0.6 5.1 5.5 3.9 3.8 8.8 14.8 10.0 27.6 6.1 0.0 0.0 0.0 7.9 8.8 0.5
0.0 0.0 0.0 0.0 0.0 0.0 0.0 0.0 0.0 0.0 0.0 0.0 0.0 0.0 0.0 28.7 8.3 0.0 0.0 1.1 1.2 1.1 7.8 6.1 9.9 11.3 11.0 14.2 18.8 21.7 16.6 5.7 3.5 3.4 7.6 4.0 10.1 13.1 13.0 19.3 14.9 0.0 0.0 2.5 2.7 0.6 0.6
0.0 0.0 0.0 0.0 0.0 0.0 0.0 0.0 0.0 0.0 0.0 0.0 0.0 0.0 0.0 5.7 11.1 0.0 0.0 0.0 0.0 0.0 0.2 0.1 2.5 2.6 4.1 12.3 13.5 12.5 20.2 13.6 8.4 8.2 0.0 10.5 4.3 8.7 8.4 8.7 2.0 0.3 1.5 1.2 0.6 0.3 0.7